Regional Weather Roundup
Issued by NWS

Home | Current Version | Previous Version | Text Only | Print | Product List | Glossary On
Versions: 1 2 3 4 5 6 7 8 9 10 11 12 13 14 15 16 17 18 19 20 21 22 23 24 25 26 27 28 29 30 31 32 33 34 35 36 37 38 39 40 41 42 43 44 45 46 47 48 49 50
000
ASUS43 KMPX 241410
RWRMN
WEATHER ROUNDUP FOR MINNESOTA
NATIONAL WEATHER SERVICE TWIN CITIES/CHANHASSEN MN
900 AM CDT SAT JUN 24 2017


NOTE: "FAIR" INDICATES FEW OR NO CLOUDS BELOW 12,000 FEET WITH NO
SIGNIFICANT WEATHER AND/OR OBSTRUCTIONS TO VISIBILITY. N/A MEANS
CURRENT SKY AND/OR WEATHER CONDITIONS ARE NOT AVAILABLE.

MNZ060>063-068>070-241500-
   Twin Cities Metro

CITY           SKY/WX    TMP DP  RH WIND       PRES   REMARKS
TWIN CITIES    MOSUNNY   60  42  51 NW21      30.01R
ST PAUL        SUNNY     59  43  55 NW13G22   30.01R
CRYSTAL        SUNNY     60  40  47 NW14      30.00R
BLAINE         MOSUNNY   61  43  51 NW16      30.00R
LAKEVILLE      SUNNY     57  45  62 NW9G17    30.02S
EDEN PRAIRIE   SUNNY     61  42  49 NW13G20   30.01R
SOUTH ST PAUL  SUNNY     60  40  48 NW15G21   30.01R
LAKE ELMO      FAIR      59  45  58 W12G20    30.01R
$$
MNZ001>005-007-008-013>017-022>024-027-028-241500-
   Northwest Minnesota

CITY           SKY/WX    TMP DP  RH WIND       PRES   REMARKS
BEMIDJI        CLOUDY    53  44  71 W10       29.96R
HALLOCK        CLOUDY    52  46  82 NW14      29.97S
ROSEAU         PTSUNNY   54  48  82 W13G18    29.94S
WARROAD        CLOUDY    50  46  87 W12       29.94S
THIEF RVR FALL PTSUNNY   54  46  76 NW12      29.98R
CROOKSTON      CLOUDY    54  48  82 NW13      30.00R
FOSSTON        CLOUDY    50  45  81 W7        29.98S
DETROIT LAKES  MOSUNNY   52  43  71 NW13G22   30.01R
MOORHEAD       DRIZZLE   54  45  71 NW17G23   30.03R
PARK RAPIDS    CLOUDY    52  40  63 W10       29.97S
MAHNOMEN       CLOUDY    52  44  75 NW10G17   29.99R
$$
MNZ006-009>011-018-025>026-241500-
   North Central Minnesota

CITY           SKY/WX    TMP DP  RH WIND       PRES   REMARKS
BAUDETTE       PTSUNNY   52  47  83 NW14      29.92R
FLAG ISLAND    CLOUDY    52  46  82 W16G24    29.89S
INTL FALLS     CLOUDY    54  48  80 NW6       29.89S
WASKISH        SUNNY     55  48  76 W7        29.93S
BIG FORK       LGT RAIN  54  48  82 W6        29.93R
LONGVILLE      CLOUDY    55  46  71 W9        29.95S
GRAND RAPIDS   CLOUDY    54  47  77 NW12      29.95S
CRANE LAKE     CLOUDY    52  48  87 W5        29.90R
ORR            DRIZZLE   52  48  87 W10       29.88R
COOK           LGT RAIN  52  48  87 W7        29.90S
WALKER         CLOUDY    51  43  73 W8        29.95S
$$
MNZ012-019>021-037-241500-
   Northeast Minnesota

CITY           SKY/WX    TMP DP  RH WIND       PRES   REMARKS
DULUTH         CLOUDY    52  48  86 W14       29.90R
ELY            CLOUDY    52  50  93 W9        29.88R
HIBBING        CLOUDY    53  48  83 NW8       29.91S
EVELETH        CLOUDY    53  47  81 W10       29.91S
DULUTH HARBOR  CLOUDY    57  50  77 W12       29.91S
TWO HARBORS    CLOUDY    57  52  82 W6        29.87S
SILVER BAY     CLOUDY    55  52  88 W6        29.86R
GRAND MARAIS     N/A     53  51  93 CALM      29.83R
G MARAIS ARPRT CLOUDY    54  48  82 CALM      29.85R
$$
MNZ029>031-032-039>041-046>048-054>057-064-241500-
   West Central Minnesota

CITY           SKY/WX    TMP DP  RH WIND       PRES   REMARKS
FERGUS FALLS   SUNNY     54  43  66 NW14      30.01S
WHEATON        PTSUNNY   57  41  54 W12G17    30.06S
MORRIS         CLOUDY    55  43  62 W9        30.04S
ALEXANDRIA     CLOUDY    52  43  71 W8        30.03S
ELBOW LAKE     CLOUDY    52  43  70 NW13G18   30.04S
WADENA         CLOUDY    50  43  76 W6        29.99S
GLENWOOD       MOSUNNY   55  45  67 W9        30.04R
APPLETON       RAIN      54  45  71 NW7       30.06S
BENSON         DRIZZLE   54  45  71 NW10      30.07S
ORTONVILLE     LGT RAIN  52  45  76 NW7       30.07R
MADISON        CLOUDY    61  46  59 W9        30.06S
WILLMAR        FAIR      57  45  62 NW14G21   30.07R
$$
MNZ033>034-036-042>043-049>051-058-059-241500-
   Central Minnesota

CITY           SKY/WX    TMP DP  RH WIND       PRES   REMARKS
ST CLOUD       PTSUNNY   58  43  57 W13       30.01R
SAUK CENTRE    PTSUNNY   56  42  59 W9        30.03S
PAYNESVILLE    MOSUNNY   56  44  61 W15G21    30.04S
AITKIN         SUNNY     55  46  71 W8        29.95R
PINE RIVER     CLOUDY    54  45  71 W5        30.00S
BRAINERD       CLOUDY    56  44  64 W10       29.98R
STAPLES        CLOUDY    54  41  62 W12       29.99F
LONG PRAIRIE   PTSUNNY   54  43  66 SW12      30.02S
LITTLE FALLS   PTSUNNY   54  41  62 W12G20    30.01S
LITCHFIELD     SUNNY     57  45  62 W12       30.05R
BUFFALO        SUNNY     58  42  53 W13G20    30.04R
MAPLE LAKE     SUNNY     59  46  61 W8        30.04R
HUTCHINSON     SUNNY     58  45  61 W14       30.06R
$$
MNZ037-044-045-052-053-241500-
   East Central Minnesota

CITY           SKY/WX    TMP DP  RH WIND       PRES   REMARKS
PRINCETON      SUNNY     61  45  55 W12       30.01R
MORA           MOSUNNY   54  43  66 W10       29.99S
CAMBRIDGE      SUNNY     59  45  58 W10G16    29.98R
RUSH CITY      CLOUDY    55  45  67 NW8       29.98S
MOOSE LAKE     PTSUNNY   54  45  71 W7        29.93R
HINCKLEY       PTSUNNY   55  46  71 W7        29.96S
CLOQUET        CLOUDY    55  45  67 W10       29.92R
MCGREGOR       SUNNY     55  45  67 W8        29.95S
$$
MNZ071>073-080-081-089-090-097-098-241500-
   Southwest Minnesota

CITY           SKY/WX    TMP DP  RH WIND       PRES   REMARKS
MONTEVIDEO     MOSUNNY   57  43  58 N13       30.07S
GRANITE FALLS  MOSUNNY   61  44  53 W9        30.08S
CANBY          PTSUNNY   57  46  65 CALM      30.07F
MARSHALL       PTSUNNY   58  44  60 W9        30.09R
REDWOOD FALLS  SUNNY     60  42  51 NW10      30.07R
OLIVIA         MOSUNNY   59  43  55 NW14G22   30.05S
PIPESTONE      MOSUNNY   59  43  55 W9        30.10S
WINDOM         SUNNY     61  41  48 W10       30.10R
WORTHINGTON    SUNNY     59  44  57 W10       30.12R
JACKSON        SUNNY     59  41  51 W12       30.10S
TRACY          PTSUNNY   60  43  54 W7        30.09S
SLAYTON        PTSUNNY   54  42  63 W6        30.11S
$$
MNZ065>067-074>077-082>085-091>093-241500-
   South Central Minnesota

CITY           SKY/WX    TMP DP  RH WIND       PRES   REMARKS
MANKATO        SUNNY     58  41  53 NW17G25   30.06R
NEW ULM        SUNNY     59  43  55 W15       30.07R
ST JAMES       SUNNY     61  43  51 W13G20    30.09R
FAIRMONT       SUNNY     59  42  53 W13       30.10R
GLENCOE        SUNNY     59  48  67 W12       30.04R
FARIBAULT      SUNNY     59  45  58 NW9       30.04R
OWATONNA       SUNNY     57  43  58 W12       30.05R
WASECA         SUNNY     55  43  62 W14       30.07R
ALBERT LEA     SUNNY     59  43  55 NW7       30.06R
$$
MNZ078>079-086>088-094>096-241500-
   Southeast Minnesota

CITY           SKY/WX    TMP DP  RH WIND       PRES   REMARKS
ROCHESTER      SUNNY     58  46  64 NW16      30.03R
RED WING       MOSUNNY   61  39  44 NW13G18   30.00R
STANTON        SUNNY     59  43  55 NW14      30.02R
DODGE CENTER   SUNNY     57  43  58 NW15      30.04R
WINONA         PTSUNNY   59  48  67 W9        30.01R
AUSTIN         SUNNY     57  41  54 NW16G22   30.05R
PRESTON        SUNNY     57  43  60 NW16G22   30.04R
$$
ABBREVIATIONS USED IN REMARKS
   TC - TEMPERATURES IN CELSIUS
  WCI - WIND CHILL INDEX
   HX - HEAT INDEX
  VSB - VISIBILITY
$$



USA.gov is the U.S. government's official web portal to all federal, state and local government web resources and services.